Flag Weather past 2 weeks in Molepolole, Botswana

Now
64 °F

Light rain. Scattered clouds.


Feels Like: 64 °F
Forecast: 72 / 89 °F
Wind: 6 mph from Northeast

Location: Seretse Khama International Airport

Current Time: Nov 23, 2014 at 12:13:58 PM

Latest Report: Nov 23, 2014 at 11:00 AM


Visibility: N/A

Pressure: 30.18 "Hg

Humidity: 94%

Dew point: 63 °F

Location of MolepololeLocation

Historic Weather in Molepolole — Graph

°F

Molepolole temperature yesterday

Maximum temperature yesterday: 93 °F (at 1:00 PM)
Minimum temperature yesterday: 70 °F (at 5:00 AM)
Average temperature yesterday: 79 °F

Past Weeks' High & Low Weather Summary

 TemperatureHumidityPressure
High97 °F (Nov 14, 3:00 PM)100% (Nov 12, 8:00 PM)30.33 "Hg (Nov 12, 8:00 PM)
Low55 °F (Nov 19, 3:00 AM)9% (Nov 16, 7:00 PM)29.86 "Hg (Nov 22, 9:00 AM)
Average76 °F47%30.05 "Hg
* Reported Nov 8 11:00 AM — Nov 23 11:00 AM, Molepolole, Weather by CustomWeather, © 2014

Note: Actual official high and low records may vary slightly from our data, if they occured in-between our weather recording intervals... More about our weather records

Advertising

Molepolole weather history for previous 24 hours

 ConditionsComfort  
Time TempWeatherWind HumidityBarometerVisibility
11:00 AM
Nov 23
64 °FLight rain. Scattered clouds.6 mph94%30.18 "HgN/A
10:00 AM63 °FLight rain. Broken clouds.5 mph94%30.18 "HgN/A
9:00 AM63 °FLight rain. Broken clouds.6 mph94%30.21 "HgN/A
8:00 AM63 °FLight rain. Broken clouds.6 mph94%30.21 "HgN/A
7:00 AM64 °FLight rain. Broken clouds.10 mph83%30.18 "HgN/A
6:00 AM64 °FLight rain. Broken clouds.16 mph88%30.18 "HgN/A
5:00 AM64 °FBroken clouds.15 mph88%30.12 "HgN/A
4:00 AM64 °FPassing clouds.12 mph88%30.12 "HgN/A
2:00 AM64 °FLight rain. Passing clouds.14 mph88%30.15 "HgN/A
1:00 AM72 °FPassing clouds.5 mph61%30.09 "HgN/A
12:00 AM72 °FThunderstorms. Passing clouds.3 mph61%30.12 "HgN/A
11:00 PM
Nov 22
72 °FClear.7 mph65%30.12 "Hg10 mi
10:00 PM73 °FPassing clouds.7 mph53%30.12 "HgN/A
9:00 PM75 °FPassing clouds.12 mph47%30.07 "HgN/A
7:00 PM77 °FPassing clouds.13 mph44%30.04 "HgN/A
6:00 PM79 °FPartly cloudy.15 mph42%30.04 "HgN/A
4:00 PM81 °FBroken clouds.15 mph42%29.98 "HgN/A
3:00 PM81 °FThunderstorms. Broken clouds.13 mph39%30.01 "HgN/A
2:00 PM90 °FScattered clouds.10 mph21%30.01 "HgN/A
1:00 PM93 °FScattered clouds.12 mph19%30.04 "HgN/A
12:00 PM91 °FPassing clouds.12 mph23%30.07 "HgN/A
Weather by CustomWeather, © 2014

See weather overviewHow to use our weather pages